[[{"header":{"parameterUnit":"m.s-1","parameterCategory":1,"la1":30.2991,"la2":30.254,"lo1":-89.0895,"lo2":-89.0444,"dy":0.0017,"dx":0.0017,"nx":28,"ny":28,"refTime":"2024-09-29T21:00:00:Z","depth":0,"parameterNumber":2,"parameterNumberName":"U-component_of_WINDS"},"data":[0,0,0,0,0,0,0,0,0,0,0,0,0,0,0,0,0,0,0,0,0,0,0,0,0,0,0,0,0,0,0,0,0,0,0,0,0,0,0,0,0,0,0,0,0,0,0,0,0,0,0,0,0,0,0,0,0,0,-0.6274,-0.6274,0,-0.6249,-0.6249,-0.6249,-0.6266,-0.6267,-0.6268,-0.6269,-0.6239,-0.6238,-0.6236,0,0,0,0,0,0,0,0,0,0,0,0,0,-0.6334,-0.6333,-0.6274,-0.6274,-0.6274,-0.6249,-0.6249,-0.6249,-0.6266,-0.6267,-0.6268,-0.6269,-0.624,-0.6238,-0.6236,0,0,0,0,0,0,0,0,0,0,0,0,0,-0.6308,-0.6332,-0.6274,-0.628,-0.628,-0.625,-0.6249,-0.6249,-0.6266,-0.6267,-0.6268,-0.6269,-0.6241,-0.6238,-0.6236,-0.6198,0,0,-0.6229,-0.6228,0,0,0,0,0,0,0,0,-0.631,-0.6306,-0.6279,-0.6279,-0.6279,-0.6262,-0.6259,-0.6232,-0.6266,-0.6271,-0.6269,-0.627,-0.6246,-0.6243,-0.6236,-0.6197,-0.6196,-0.6229,-0.6228,-0.6227,-0.6226,0,0,0,0,0,0,0,-0.6311,-0.6307,-0.6264,-0.6279,-0.6279,-0.6282,-0.628,-0.6254,-0.6252,-0.6271,-0.6272,-0.6269,-0.6246,-0.6238,-0.6235,-0.6195,-0.6229,-0.6227,-0.6226,-0.6225,-0.6123,-0.6122,0,0,0,0,0,0,-0.6313,-0.6309,-0.6265,-0.6264,-0.6298,-0.628,-0.6277,-0.6266,-0.6252,-0.6251,-0.6268,-0.627,-0.6241,-0.6238,-0.6234,-0.6188,-0.6227,-0.6224,-0.6223,-0.6125,-0.6123,-0.6122,0,0,0,0,0,0,-0.6314,-0.6309,-0.6266,-0.6286,-0.6281,-0.6278,-0.6265,-0.6265,-0.6257,-0.625,-0.625,-0.626,-0.6242,-0.6237,-0.6207,-0.6187,-0.6223,-0.6221,-0.6126,-0.6124,-0.6122,-0.6096,0,0,0,0,0,0,-0.6316,-0.6309,-0.6296,-0.6286,-0.628,-0.624,-0.6264,-0.6264,-0.6254,-0.6256,-0.6243,-0.6242,-0.6243,-0.621,-0.6205,-0.6185,-0.622,-0.6128,-0.6125,-0.6123,-0.6099,-0.6093,-0.6089,0,0,0,0,0,-0.6318,-0.6289,-0.6295,-0.629,-0.6263,-0.6239,-0.6236,-0.6238,-0.6252,-0.6238,-0.6233,-0.6242,-0.6191,-0.6207,-0.6201,-0.618,-0.6129,-0.6126,-0.6123,-0.6101,-0.6094,-0.6089,0,0,0,0,0,0,-0.6294,-0.6287,-0.6294,-0.6261,-0.6251,-0.6242,-0.6224,-0.6232,-0.6216,-0.6218,-0.6222,-0.6218,-0.6186,-0.6181,-0.6199,-0.6143,-0.6162,-0.6158,-0.6147,-0.6141,-0.6136,-0.6137,-0.6218,0,0,0,0,0,-0.6286,-0.6268,-0.6263,-0.6234,-0.6228,-0.6227,-0.6217,-0.622,-0.6209,-0.6204,-0.6197,-0.6185,-0.6167,-0.6154,-0.6136,-0.6099,-0.6095,-0.6081,-0.6077,-0.6073,-0.6068,-0.6047,-0.604,-0.6112,-0.6112,-0.6112,0,0,-0.6267,-0.6261,-0.6249,-0.6229,-0.6221,-0.6201,-0.6223,-0.6202,-0.6187,-0.62,-0.6171,-0.6166,-0.6153,-0.6119,-0.6103,-0.6113,-0.6048,-0.6069,-0.6066,-0.6063,-0.6043,-0.6036,-0.603,-0.611,-0.611,-0.6111,0,0,-0.6222,-0.6216,-0.6191,-0.6184,-0.6172,-0.6172,-0.6166,-0.6156,-0.6154,-0.6125,-0.6135,-0.6117,-0.6085,-0.6075,-0.6065,-0.6018,-0.6025,-0.6012,-0.5986,-0.5965,-0.5959,-0.5954,-0.5936,-0.5929,-0.6008,-0.6008,-0.6008,0,-0.6199,-0.6171,-0.6177,-0.6155,-0.6145,-0.6159,-0.6132,-0.6124,-0.6107,-0.61,-0.6111,-0.6071,-0.6063,-0.6026,-0.6015,-0.6007,-0.5999,-0.6012,-0.596,-0.5955,-0.595,-0.5933,-0.5926,-0.6006,-0.6007,-0.6007,-0.6007,0,-0.6143,-0.6123,-0.6104,-0.6089,-0.6077,-0.6053,-0.6055,-0.6042,-0.6047,-0.6045,-0.6015,-0.6006,-0.5987,-0.5979,-0.5983,-0.5942,-0.5948,-0.596,-0.5979,-0.5942,-0.5925,-0.5918,-0.6004,-0.6005,-0.6005,-0.6006,0,0,-0.608,-0.607,-0.6062,-0.6055,-0.6044,-0.6029,-0.6005,-0.5988,-0.5976,-0.5964,-0.5944,-0.5917,-0.5928,-0.5917,-0.592,-0.5902,-0.5863,-0.5916,-0.5915,-0.5905,-0.5816,-0.5806,-0.5798,-0.5869,-0.5868,-0.5867,-0.5817,0,-0.6033,-0.5993,-0.5998,-0.5959,-0.5941,-0.5954,-0.5933,-0.5924,-0.5922,-0.5905,-0.5902,-0.5883,-0.5899,-0.5893,-0.5876,-0.5871,-0.5845,-0.5875,-0.5848,-0.5847,-0.5848,-0.579,-0.5779,-0.5732,-0.5811,-0.581,-0.5809,0,-0.5973,-0.596,-0.5919,-0.5912,-0.5904,-0.5885,-0.5869,-0.5854,-0.5843,-0.5843,-0.5832,-0.5838,-0.5813,-0.5835,-0.58,-0.5821,-0.581,-0.5806,-0.5804,-0.58,-0.5824,-0.5782,-0.5718,-0.571,-0.5799,-0.58,-0.58,0,-0.5929,-0.5902,-0.5874,-0.5868,-0.5858,-0.5845,-0.584,-0.5831,-0.582,-0.5806,-0.5798,-0.5781,-0.5771,-0.5758,-0.5759,-0.5775,-0.5723,-0.5745,-0.572,-0.572,-0.5707,-0.5707,-0.5638,-0.5703,-0.5704,-0.5704,-0.5704,0,-0.5874,-0.5848,-0.5854,-0.5836,-0.5808,-0.5814,-0.5785,-0.5782,-0.5774,-0.5755,-0.5766,-0.5748,-0.5752,-0.5733,-0.5734,-0.5704,-0.57,-0.5698,-0.5698,-0.5696,-0.5696,-0.5687,-0.569,-0.5702,-0.5702,-0.5703,-0.5703,0,-0.5819,-0.5822,-0.5792,-0.5787,-0.5785,-0.5763,-0.5758,-0.5741,-0.5741,-0.5717,-0.5711,-0.571,-0.5689,-0.569,-0.5666,-0.5667,-0.563,-0.5634,-0.5633,-0.5633,-0.5608,-0.5609,-0.5529,-0.5518,-0.5593,-0.5592,-0.5591,0,-0.5783,-0.5764,-0.5757,-0.5746,-0.574,-0.5722,-0.5712,-0.5717,-0.5705,-0.5692,-0.5677,-0.5657,-0.5642,-0.5608,-0.5604,-0.5585,-0.5589,-0.5562,-0.5586,-0.5584,-0.5586,-0.5586,-0.5583,-0.5556,-0.5555,-0.5555,-0.5554,0,-0.5718,-0.5721,-0.5706,-0.5691,-0.5678,-0.5667,-0.5656,-0.5646,-0.5651,-0.5637,-0.5616,-0.5605,-0.5581,-0.5561,-0.5543,-0.5537,-0.5545,-0.5547,-0.554,-0.5536,-0.5535,-0.5533,-0.5618,-0.5548,-0.5549,-0.5549,-0.5549,-0.555,-0.567,-0.5654,-0.5646,-0.5629,-0.5622,-0.5612,-0.5595,-0.5594,-0.5577,-0.5559,-0.5564,-0.554,-0.553,-0.5508,-0.55,-0.5481,-0.5491,-0.5481,-0.5478,-0.5475,-0.5471,-0.5541,-0.5478,-0.5479,-0.5479,-0.5479,-0.5479,0,-0.5605,-0.5601,-0.5585,-0.557,-0.5556,-0.5568,-0.5557,-0.5544,-0.5524,-0.5515,-0.55,-0.5476,-0.5457,-0.5452,-0.5434,-0.5419,-0.5422,-0.5414,-0.5414,-0.5412,-0.5465,-0.5472,-0.5411,-0.5411,-0.5411,-0.5411,-0.5411,-0.5411,-0.5568,-0.554,-0.5542,-0.5511,-0.5507,-0.5485,-0.5477,-0.5468,-0.546,-0.5434,-0.5419,-0.5416,-0.5409,-0.539,-0.5372,-0.5371,-0.5363,-0.5352,-0.5353,-0.5402,-0.5408,-0.5415,-0.5421,-0.5351,-0.5351,-0.5301,-0.5301,-0.53]},{"header":{"parameterUnit":"m.s-1","parameterCategory":1,"la1":30.2991,"la2":30.254,"lo1":-89.0895,"lo2":-89.0444,"dy":0.0017,"dx":0.0017,"nx":28,"ny":28,"refTime":"2024-09-29T21:00:00:Z","depth":0,"parameterNumber":3,"parameterNumberName":"V-component_of_WINDS"},"data":[0,0,0,0,0,0,0,0,0,0,0,0,0,0,0,0,0,0,0,0,0,0,0,0,0,0,0,0,0,0,0,0,0,0,0,0,0,0,0,0,0,0,0,0,0,0,0,0,0,0,0,0,0,0,0,0,0,0,-0.1845,-0.1845,0,-0.184,-0.184,-0.184,-0.1834,-0.1834,-0.1834,-0.1834,-0.1827,-0.1827,-0.1827,0,0,0,0,0,0,0,0,0,0,0,0,0,-0.1851,-0.1851,-0.1845,-0.1845,-0.1845,-0.184,-0.184,-0.184,-0.1834,-0.1834,-0.1834,-0.1834,-0.1827,-0.1827,-0.1827,0,0,0,0,0,0,0,0,0,0,0,0,0,-0.1847,-0.1851,-0.1845,-0.1842,-0.1841,-0.184,-0.184,-0.1839,-0.1834,-0.1834,-0.1834,-0.1834,-0.1828,-0.1827,-0.1827,-0.1828,0,0,-0.1827,-0.1827,0,0,0,0,0,0,0,0,-0.1848,-0.1847,-0.1842,-0.1842,-0.1842,-0.1837,-0.1839,-0.1836,-0.1834,-0.1837,-0.1834,-0.1834,-0.1831,-0.183,-0.183,-0.1828,-0.1828,-0.1827,-0.1827,-0.1827,-0.1827,0,0,0,0,0,0,0,-0.1848,-0.1847,-0.1843,-0.1842,-0.1842,-0.184,-0.184,-0.1839,-0.1834,-0.1837,-0.1836,-0.1836,-0.1831,-0.183,-0.1829,-0.1828,-0.1827,-0.1827,-0.1827,-0.1826,-0.1827,-0.1827,0,0,0,0,0,0,-0.1849,-0.1848,-0.1843,-0.1843,-0.1844,-0.184,-0.184,-0.1839,-0.1834,-0.1834,-0.1836,-0.1835,-0.183,-0.183,-0.1829,-0.183,-0.1827,-0.1826,-0.1826,-0.1827,-0.1827,-0.1827,0,0,0,0,0,0,-0.1849,-0.1848,-0.1843,-0.1845,-0.1844,-0.184,-0.184,-0.1839,-0.1838,-0.1834,-0.1833,-0.1836,-0.183,-0.1829,-0.1829,-0.183,-0.1826,-0.1826,-0.1827,-0.1827,-0.1827,-0.1833,0,0,0,0,0,0,-0.1849,-0.1849,-0.1849,-0.1845,-0.1844,-0.1843,-0.184,-0.1839,-0.1838,-0.1837,-0.1833,-0.1833,-0.183,-0.1829,-0.1829,-0.183,-0.1826,-0.1827,-0.1827,-0.1827,-0.1832,-0.1833,-0.1834,0,0,0,0,0,-0.1849,-0.185,-0.1849,-0.1848,-0.1845,-0.1843,-0.1843,-0.184,-0.1838,-0.1838,-0.1836,-0.1833,-0.183,-0.1829,-0.1828,-0.183,-0.1827,-0.1827,-0.1827,-0.1832,-0.1833,-0.1834,0,0,0,0,0,0,-0.1854,-0.185,-0.1848,-0.1848,-0.1846,-0.1842,-0.1843,-0.184,-0.1839,-0.1838,-0.1834,-0.1833,-0.1833,-0.1831,-0.183,-0.1831,-0.1828,-0.1828,-0.1832,-0.1833,-0.1833,-0.1834,-0.1826,0,0,0,0,0,-0.1855,-0.1854,-0.1851,-0.1851,-0.185,-0.1847,-0.1846,-0.1844,-0.1841,-0.184,-0.1838,-0.1836,-0.1834,-0.1833,-0.1832,-0.1832,-0.1831,-0.1833,-0.1833,-0.1834,-0.1834,-0.1834,-0.1835,-0.1828,-0.1828,-0.1828,0,0,-0.1857,-0.1855,-0.1855,-0.1852,-0.185,-0.1849,-0.1846,-0.1845,-0.1845,-0.184,-0.184,-0.1838,-0.1835,-0.1835,-0.1835,-0.1833,-0.1836,-0.1834,-0.1835,-0.1835,-0.1835,-0.1835,-0.1836,-0.1828,-0.1828,-0.1828,0,0,-0.1861,-0.1859,-0.1859,-0.1858,-0.1855,-0.1853,-0.1853,-0.185,-0.1848,-0.1848,-0.1844,-0.1844,-0.1841,-0.1839,-0.1838,-0.1842,-0.1839,-0.1841,-0.1845,-0.1845,-0.1846,-0.1846,-0.1847,-0.1848,-0.1842,-0.1842,-0.1842,0,-0.1864,-0.1863,-0.1859,-0.1859,-0.1858,-0.1854,-0.1855,-0.1853,-0.185,-0.185,-0.1848,-0.1845,-0.1843,-0.1843,-0.1844,-0.1843,-0.1843,-0.1842,-0.1846,-0.1846,-0.1847,-0.1848,-0.1848,-0.1842,-0.1842,-0.1842,-0.1842,0,-0.1866,-0.1866,-0.1866,-0.1864,-0.1863,-0.1863,-0.186,-0.1859,-0.1857,-0.1855,-0.1855,-0.1852,-0.185,-0.185,-0.1848,-0.1849,-0.1849,-0.1847,-0.1844,-0.1848,-0.1849,-0.1849,-0.1842,-0.1842,-0.1842,-0.1842,0,0,-0.1872,-0.1869,-0.1869,-0.1868,-0.1865,-0.1864,-0.1864,-0.1863,-0.1862,-0.1861,-0.186,-0.1859,-0.1857,-0.1856,-0.1853,-0.1854,-0.1857,-0.1852,-0.1852,-0.1853,-0.1859,-0.1861,-0.1861,-0.1855,-0.1856,-0.1856,-0.1859,0,-0.1875,-0.1875,-0.1872,-0.1873,-0.1872,-0.1869,-0.1869,-0.1867,-0.1866,-0.1865,-0.1863,-0.1862,-0.1859,-0.1859,-0.1859,-0.1857,-0.1858,-0.1856,-0.1855,-0.1855,-0.1856,-0.1862,-0.1863,-0.1867,-0.186,-0.186,-0.186,0,-0.1879,-0.1878,-0.1878,-0.1876,-0.1875,-0.1875,-0.1874,-0.1873,-0.1871,-0.187,-0.1869,-0.1866,-0.1866,-0.1864,-0.1864,-0.1862,-0.1862,-0.1861,-0.1861,-0.186,-0.1858,-0.1862,-0.1868,-0.1869,-0.186,-0.186,-0.186,0,-0.1883,-0.1882,-0.1882,-0.1881,-0.1878,-0.1878,-0.1877,-0.1875,-0.1875,-0.1873,-0.1873,-0.1872,-0.1871,-0.187,-0.1867,-0.1866,-0.1867,-0.1864,-0.1866,-0.1866,-0.1866,-0.1866,-0.1873,-0.1866,-0.1866,-0.1866,-0.1866,0,-0.1887,-0.1887,-0.1884,-0.1884,-0.1884,-0.1882,-0.1882,-0.1881,-0.1879,-0.1879,-0.1876,-0.1876,-0.1872,-0.1872,-0.187,-0.187,-0.1869,-0.1868,-0.1868,-0.1869,-0.1869,-0.1868,-0.1868,-0.1866,-0.1866,-0.1866,-0.1866,0,-0.1892,-0.1889,-0.1889,-0.1887,-0.1886,-0.1887,-0.1885,-0.1885,-0.1883,-0.1883,-0.1882,-0.188,-0.1879,-0.1876,-0.1875,-0.1873,-0.1874,-0.1873,-0.1875,-0.1875,-0.1876,-0.1876,-0.1883,-0.1883,-0.1876,-0.1876,-0.1876,0,-0.1894,-0.1894,-0.1892,-0.1892,-0.1891,-0.189,-0.189,-0.1887,-0.1887,-0.1885,-0.1885,-0.1884,-0.1884,-0.1883,-0.188,-0.1879,-0.1878,-0.1881,-0.1878,-0.1879,-0.1878,-0.1878,-0.1878,-0.1881,-0.1881,-0.1881,-0.1881,0,-0.1899,-0.1898,-0.1897,-0.1896,-0.1896,-0.1895,-0.1894,-0.1894,-0.1891,-0.189,-0.189,-0.1889,-0.1888,-0.1887,-0.1886,-0.1885,-0.1883,-0.1882,-0.1882,-0.1883,-0.1884,-0.1884,-0.1876,-0.1882,-0.1882,-0.1882,-0.1882,-0.1882,-0.1902,-0.1902,-0.1901,-0.1901,-0.19,-0.1899,-0.1899,-0.1897,-0.1897,-0.1896,-0.1894,-0.1894,-0.1893,-0.1891,-0.189,-0.1889,-0.1888,-0.1888,-0.1889,-0.1889,-0.1889,-0.1884,-0.1889,-0.1889,-0.1889,-0.1889,-0.1889,0,-0.1907,-0.1906,-0.1905,-0.1904,-0.1904,-0.1902,-0.1901,-0.1901,-0.1901,-0.19,-0.1899,-0.1899,-0.1898,-0.1896,-0.1895,-0.1895,-0.1894,-0.1895,-0.1895,-0.1895,-0.189,-0.189,-0.1896,-0.1896,-0.1896,-0.1896,-0.1896,-0.1896,-0.1909,-0.1909,-0.1908,-0.1908,-0.1907,-0.1907,-0.1907,-0.1906,-0.1905,-0.1905,-0.1904,-0.1903,-0.1902,-0.1901,-0.19,-0.19,-0.19,-0.1901,-0.19,-0.1896,-0.1895,-0.1894,-0.1894,-0.1901,-0.1901,-0.1905,-0.1905,-0.1905]}]]